Regional Weather Roundup
Issued by NWS Sioux Falls, SD

Home | Current Version | Previous Version | Text Only | Print | Product List | Glossary On
Versions: 1 2 3 4 5 6 7 8 9 10 11 12 13 14 15 16 17 18 19 20 21 22 23 24 25 26 27 28 29 30 31 32 33 34 35 36 37 38 39 40 41 42 43 44 45 46 47 48 49 50
000
ASUS43 KFSD 230310
RWRFSD

WEATHER ROUNDUP FOR SE SOUTH DAKOTA/SW MINNESOTA/NW IOWA
NATIONAL WEATHER SERVICE SIOUX FALLS SD
1000 PM CDT TUE JUL 22 2014

NOTE: "FAIR" INDICATES FEW OR NO CLOUDS BELOW 12,000 FEET WITH NO
SIGNIFICANT WEATHER AND OR OBSTRUCTIONS TO VISIBILITY.


SDZ038>040-050-052>070-230400-
SOUTHEAST SOUTH DAKOTA

CITY           SKY/WX    TMP DP  RH WIND       PRES   REMARKS
CHAMBERLAIN    PTCLDY    73  59  63 NE8       30.22R
HURON          CLEAR     70  60  70 NE6       30.22R
MADISON        FAIR      64  63  94 NE6       30.23R
MITCHELL       CLEAR     72  62  71 E3        30.21R
SIOUX FALLS    PTCLDY    68  59  73 N6        30.21R
WINNER         FAIR      74  58  57 E8        30.23R
YANKTON        CLEAR     72  63  73 N7        30.19
$$

MNZ071-072-080-081-089-090-097-098-230400-
SOUTHWEST MINNESOTA

CITY           SKY/WX    TMP DP  RH WIND       PRES   REMARKS
FAIRMONT       CLEAR     70  55  60 N9        30.16R
JACKSON        CLEAR     68  55  64 N5        30.19R
LUVERNE        CLEAR     72  55  56 N6        30.21R
MARSHALL       CLEAR     64  57  77 NW7       30.21R
MONTEVIDEO     CLEAR     66  55  68 N7        30.21R
PIPESTONE      CLEAR     70  55  60 N3        30.23R
REDWOOD FALLS  CLEAR     71  57  61 NW7       30.18R
TRACY          CLEAR     67  58  72 NW7       30.22R
WINDOM         CLEAR     66  55  68 NW8       30.19R
WORTHINGTON    CLEAR     64  55  72 NW8       30.22R
$$

IAZ001>003-012>014-020>022-031-032-NEZ013-014-SDZ071-230400-
NORTHWEST IOWA

CITY           SKY/WX    TMP DP  RH WIND       PRES   REMARKS
CHEROKEE       CLEAR     70  63  76 NE5       30.17R
DENISON        CLEAR     73  66  78 N6        30.13R
ESTHERVILLE    CLEAR     67  58  72 NW7       30.16R
LE MARS        CLEAR     70  63  78 N6        30.18R
ORANGE CITY    CLEAR     73  59  60 N8        30.19R
SHELDON        CLEAR     66  61  82 N8        30.19R
SIOUX CITY     CLEAR     76  63  64 NE6       30.16R
SPENCER        CLEAR     68  58  70 N9        30.18R
STORM LAKE     CLEAR     68  63  83 N8        30.18R
$$

ABBREVIATIONS USED IN REMARKS
   TC - TEMPERATURE IN CELSIUS
  WCI - WIND CHILL INDEX
   HX - HEAT INDEX
  VSB - VISIBILITY




USA.gov is the U.S. government's official web portal to all federal, state and local government web resources and services.